Location: Bremen
(53.0758°N, 8.8072°E)
Time: 14:58:13
(UTC+01:00)

ISS - Pass Details

Date: 23 January 2026
Orbit: 413 x 428 km, 51.6° (Epoch: 13 February)

Event Time Altitude Azimuth Distance (km) Brightness Sun altitude
Rises 18:40:38 0° 275° (W) 2,364 1.6 -15.9°
Reaches altitude 10° 18:42:45 10° 271° (W) 1,502 0.3 -16.2°
Maximum altitude 18:46:04 60° 191° (S) 488 -3.4 -16.7°
Enters shadow 18:47:14 35° 127° (SE) 698 -3.0 -16.9°
